TimeEDT,TemperatureF,Dew PointF,Humidity,Sea Level PressureIn,VisibilityMPH,Wind Direction,Wind SpeedMPH,Gust SpeedMPH,PrecipitationIn,Events,Conditions,WindDirDegrees,DateUTC
12:27 AM,68.0,64.4,88,30.12,10.0,East,1.2,-,N/A,Rain,Light Rain,100,2013-06-24 04:27:00
12:37 AM,69.8,64.4,83,30.12,10.0,ENE,1.2,-,N/A,,Clear,70,2013-06-24 04:37:00
12:58 AM,69.6,64.9,85,30.10,10.0,East,3.5,-,0.00,,Clear,100,2013-06-24 04:58:00
1:28 AM,69.8,66.2,88,30.11,10.0,SE,2.3,-,N/A,Rain,Light Rain,140,2013-06-24 05:28:00
1:42 AM,69.8,64.4,83,30.10,9.0,South,2.3,-,N/A,,Clear,170,2013-06-24 05:42:00
1:45 AM,69.8,64.4,83,30.10,10.0,South,2.3,-,N/A,Rain,Light Rain,170,2013-06-24 05:45:00
1:58 AM,70.0,65.1,85,30.09,10.0,SSE,4.6,-,0.00,Rain,Light Rain,150,2013-06-24 05:58:00
2:39 AM,69.8,66.2,88,30.09,9.0,SSE,1.2,-,N/A,,Partly Cloudy,150,2013-06-24 06:39:00
2:46 AM,68.0,66.2,94,30.09,9.0,SE,2.3,-,N/A,Rain,Light Rain,140,2013-06-24 06:46:00
2:58 AM,69.3,65.7,88,30.08,9.0,SSE,2.3,-,0.00,Rain,Light Rain,160,2013-06-24 06:58:00
3:03 AM,68.0,66.2,94,30.09,10.0,South,2.3,-,N/A,,Mostly Cloudy,170,2013-06-24 07:03:00
3:58 AM,68.9,66.7,93,30.09,10.0,South,3.5,-,0.00,,Overcast,190,2013-06-24 07:58:00
4:58 AM,70.3,68.0,92,30.08,10.0,South,4.6,-,N/A,,Overcast,180,2013-06-24 08:58:00
5:58 AM,70.3,68.2,93,30.09,10.0,South,5.8,-,N/A,,Overcast,190,2013-06-24 09:58:00
6:58 AM,70.9,68.4,92,30.10,10.0,South,4.6,-,N/A,,Overcast,180,2013-06-24 10:58:00
7:58 AM,72.3,68.9,89,30.12,10.0,South,4.6,-,N/A,,Scattered Clouds,180,2013-06-24 11:58:00
8:58 AM,74.5,69.3,84,30.14,10.0,WSW,8.1,-,N/A,,Scattered Clouds,240,2013-06-24 12:58:00
9:58 AM,73.4,69.4,87,30.15,10.0,Calm,Calm,-,N/A,,Mostly Cloudy,0,2013-06-24 13:58:00
9:59 AM,73.4,69.8,88,30.16,10.0,Calm,Calm,-,N/A,Rain,Light Rain,0,2013-06-24 13:59:00
10:25 AM,75.2,69.8,83,30.17,10.0,West,2.3,-,N/A,,Scattered Clouds,260,2013-06-24 14:25:00
10:42 AM,75.2,68.0,78,30.17,1.0,WSW,6.9,-,N/A,Rain,Rain Showers,250,2013-06-24 14:42:00
10:43 AM,75.2,69.8,83,30.18,3.0,West,6.9,-,N/A,,Haze,270,2013-06-24 14:43:00
10:44 AM,75.2,69.8,83,30.17,1.5,WNW,5.8,-,N/A,Rain,Light Rain,300,2013-06-24 14:44:00
10:45 AM,75.2,69.8,83,30.17,2.0,NW,6.9,-,N/A,Rain,Light Rain Showers,310,2013-06-24 14:45:00
10:48 AM,73.4,69.8,88,30.15,3.0,NNW,5.8,-,N/A,Rain,Light Rain Showers,330,2013-06-24 14:48:00
10:58 AM,72.3,70.3,93,30.17,5.0,Calm,Calm,-,0.24,Rain,Light Rain,0,2013-06-24 14:58:00
11:01 AM,71.6,69.8,94,30.17,9.0,Calm,Calm,-,N/A,,Mostly Cloudy,0,2013-06-24 15:01:00
11:47 AM,77.0,71.6,83,30.17,10.0,WSW,6.9,-,N/A,Rain-Thunderstorm,Light Thunderstorms and Rain,250,2013-06-24 15:47:00
11:58 AM,75.4,70.7,85,30.17,5.0,WSW,11.5,-,0.00,Rain-Thunderstorm,Light Thunderstorms and Rain,240,2013-06-24 15:58:00
12:14 PM,71.6,69.8,94,30.16,5.0,SW,2.3,-,N/A,Rain,Light Rain,230,2013-06-24 16:14:00
12:19 PM,71.6,69.8,94,30.16,3.0,SE,1.2,-,N/A,Rain,Light Rain,140,2013-06-24 16:19:00
12:58 PM,72.0,70.7,96,30.15,7.0,WSW,9.2,-,0.08,Rain,Light Rain,250,2013-06-24 16:58:00
1:53 PM,73.4,69.8,88,30.15,10.0,SSW,5.8,-,N/A,,Overcast,210,2013-06-24 17:53:00
1:58 PM,73.4,70.2,90,30.15,10.0,SW,5.8,-,0.00,,Overcast,220,2013-06-24 17:58:00
2:08 PM,73.4,69.8,88,30.14,10.0,WSW,4.6,-,N/A,,Mostly Cloudy,250,2013-06-24 18:08:00
2:18 PM,75.2,69.8,83,30.14,10.0,Calm,Calm,-,N/A,,Mostly Cloudy,0,2013-06-24 18:18:00
2:20 PM,75.2,69.8,83,30.13,10.0,Variable,2.3,-,N/A,Rain,Light Rain,0,2013-06-24 18:20:00
2:33 PM,75.2,69.8,83,30.14,10.0,West,5.8,-,N/A,,Mostly Cloudy,260,2013-06-24 18:33:00
2:38 PM,75.2,69.8,83,30.13,10.0,West,3.5,-,N/A,,Mostly Cloudy,270,2013-06-24 18:38:00
2:43 PM,75.2,69.8,83,30.13,10.0,WSW,5.8,-,N/A,,Mostly Cloudy,250,2013-06-24 18:43:00
2:58 PM,75.9,69.4,80,30.12,10.0,SSW,4.6,-,0.00,,Mostly Cloudy,200,2013-06-24 18:58:00
3:13 PM,77.0,69.8,78,30.13,10.0,Variable,3.5,-,N/A,,Mostly Cloudy,0,2013-06-24 19:13:00
3:55 PM,76.6,69.1,77,30.07,10.0,West,4.6,-,0.00,,Overcast,270,2013-06-24 19:55:00
4:55 PM,73.9,69.4,86,30.07,10.0,SW,8.1,-,N/A,,Overcast,230,2013-06-24 20:55:00
5:40 PM,73.4,68.0,83,30.09,10.0,WSW,9.2,-,N/A,,Mostly Cloudy,250,2013-06-24 21:40:00
5:55 PM,73.6,68.2,83,30.09,10.0,West,8.1,-,N/A,,Mostly Cloudy,280,2013-06-24 21:55:00
6:56 PM,74.8,68.2,80,30.07,10.0,Calm,Calm,-,N/A,,Mostly Cloudy,0,2013-06-24 22:56:00
7:55 PM,74.5,68.0,80,30.07,10.0,South,5.8,-,N/A,,Mostly Cloudy,170,2013-06-24 23:55:00
8:55 PM,72.0,68.5,89,30.09,10.0,South,3.5,-,N/A,,Mostly Cloudy,170,2013-06-25 00:55:00
9:58 PM,70.2,68.4,94,30.08,10.0,South,2.3,-,N/A,,Clear,170,2013-06-25 01:58:00
9:59 PM,69.8,68.0,94,30.08,10.0,SSE,3.5,-,N/A,,Clear,160,2013-06-25 01:59:00
10:10 PM,69.8,68.0,94,30.07,10.0,SE,5.8,-,N/A,,Clear,140,2013-06-25 02:10:00
10:58 PM,69.6,67.8,94,30.08,10.0,SE,2.3,-,0.00,,Clear,130,2013-06-25 02:58:00
11:12 PM,69.8,68.0,94,30.09,10.0,East,1.2,-,N/A,Rain,Light Rain,90,2013-06-25 03:12:00
11:22 PM,69.8,68.0,94,30.09,10.0,ESE,1.2,-,N/A,,Clear,120,2013-06-25 03:22:00
11:28 PM,69.8,68.0,94,30.09,10.0,ESE,3.5,-,N/A,Rain,Light Rain,120,2013-06-25 03:28:00
11:37 PM,69.8,68.0,94,30.09,10.0,SE,3.5,-,N/A,,Clear,130,2013-06-25 03:37:00
11:58 PM,68.7,67.6,96,30.08,10.0,ESE,4.6,-,0.00,,Clear,120,2013-06-25 03:58:00